CW8822 Caguas PR US current weather conditions

sailwx.info

Wind from 143 at 3 knots gusting 9

Air temperature 23.9° C
Dewpoint 22.9° C

Last reported at 2016-May-06 08:38 UTC.
Time now 2016-May-06 09:20 UTC

Location: N 18°12' W 066°01'.
View on Google Maps.

See reports from other nearby stations

  
Tides and Currents Weather Stations Pressure Air Temp Water Temp Dewpoint Dewpoint Depression Visibility Wind Speed Wind Dir Waves Ship Positions
date/time (UTC)wind fromknots sea level pressurealtimeterstation pressurevisibilityair tempwater tempwave heightnotes
2016-May-06 08:38 143 3 gusting 9 23.9
2016-May-06 08:23 098 1 gusting 9 23.9
2016-May-06 08:09 113 0 gusting 10 23.9
2016-May-06 07:52 129 0 gusting 6 23.9
2016-May-06 07:38 143 23.9
2016-May-06 07:23 114 23.9
2016-May-06 07:08 158 23.9
2016-May-06 06:52 115 23.9
2016-May-06 06:38 176 1 gusting 6 23.9
2016-May-06 06:23 148 23.9
2016-May-06 06:07 125 23.9
2016-May-06 05:52 133 23.9
2016-May-06 05:38 153 23.9
2016-May-06 05:22 130 23.9
2016-May-06 05:07 141 23.9
2016-May-06 04:53 138 23.9
2016-May-06 04:36 147 23.9
2016-May-06 04:22 151 24.4
2016-May-06 04:08 155 24.4
2016-May-06 03:52 123 24.4
2016-May-06 03:37 127 24.4
2016-May-06 03:21 118 24.4
2016-May-06 03:06 106 24.4
2016-May-06 02:52 121 24.4
2016-May-06 02:36 109 24.4
2016-May-06 02:21 155 2 gusting 12 24.4
2016-May-06 02:06 113 24.4
2016-May-06 01:51 133 0 gusting 6 24.4
2016-May-06 01:37 133 24.4
2016-May-06 01:22 158 24.4
2016-May-06 01:05 153 24.4
2016-May-06 00:51 107 24.4
2016-May-06 00:36 130 24.4
2016-May-06 00:21 132 24.4
2016-May-06 00:07 141 25.0
2016-May-05 23:50 131 25.0
2016-May-05 23:35 131 25.0
2016-May-05 23:21 121 25.0
2016-May-05 23:06 164 25.0
2016-May-05 22:50 098 25.0
2016-May-05 22:35 141 0 gusting 7 25.6
2016-May-05 22:21 096 25.6
2016-May-05 22:06 145 0 gusting 5 26.1
2016-May-05 21:50 119 1 gusting 6 26.1
2016-May-05 21:35 123 26.7
2016-May-05 21:20 130 2 gusting 11 26.7
2016-May-05 21:06 132 3 gusting 12 26.7
2016-May-05 20:49 126 26.7
2016-May-05 20:35 082 1 gusting 6 26.7
2016-May-05 20:20 166 0 gusting 7 26.7
2016-May-05 20:05 145 1 gusting 6 27.2
2016-May-05 19:50 088 0 gusting 8 27.2
2016-May-05 19:34 066 1 gusting 6 26.7
2016-May-05 19:19 142 2 gusting 9 26.1
2016-May-05 19:05 126 5 gusting 18 26.7
2016-May-05 18:50 149 27.8
2016-May-05 18:34 121 28.3
2016-May-05 18:19 080 1 gusting 8 27.8
2016-May-05 18:04 134 3 gusting 8 28.3
2016-May-05 17:50 126 0 gusting 7 27.8
2016-May-05 17:33 090 2 gusting 11 28.3
2016-May-05 17:19 129 0 gusting 11 28.3
2016-May-05 17:04 121 2 gusting 12 27.8
2016-May-05 16:49 118 0 gusting 6 27.8
2016-May-05 16:34 124 0 gusting 8 27.8
2016-May-05 16:18 157 27.8
2016-May-05 16:03 142 0 gusting 7 27.8
2016-May-05 15:49 117 3 gusting 10 27.8
2016-May-05 15:34 096 27.2
2016-May-05 15:18 142 1 gusting 9 27.2
2016-May-05 15:03 134 0 gusting 9 26.7
2016-May-05 14:48 118 1 gusting 11 27.2
2016-May-05 14:32 094 0 gusting 11 27.2
2016-May-05 14:18 086 1 gusting 8 27.2
2016-May-05 14:03 210 26.7
2016-May-05 13:47 095 1 gusting 6 26.1
2016-May-05 13:33 082 2 gusting 9 25.6
2016-May-05 13:17 121 0 gusting 8 25.0
2016-May-05 13:03 146 1 gusting 9 24.4
2016-May-05 12:47 109 24.4
2016-May-05 12:32 107 0 gusting 6 23.9
2016-May-05 12:17 091 23.9
2016-May-05 12:02 150 23.3
2016-May-05 11:47 149 23.3
2016-May-05 11:32 126 23.3
2016-May-05 11:17 132 23.3
2016-May-05 11:02 132 23.3
2016-May-05 10:47 134 0 gusting 6 23.3
2016-May-05 10:32 142 23.3
2016-May-05 10:17 138 0 gusting 5 23.3
2016-May-05 10:02 136 23.3
2016-May-05 09:47 134 23.3
2016-May-05 09:32 137 1 gusting 6 22.8
2016-May-05 09:17 079 22.8
2016-May-05 09:02 142 23.3
2016-May-05 08:47 144 23.3
2016-May-05 08:32 142 22.8
2016-May-05 08:17 120 22.8
2016-May-05 08:02 130 22.8
2016-May-05 07:47 123 23.3
2016-May-05 07:32 126 23.3
2016-May-05 07:17 127 23.3
2016-May-05 07:02 121 23.3
2016-May-05 06:47 139 23.3
2016-May-05 06:32 117 0 gusting 3 23.3
2016-May-05 06:17 117 23.3
2016-May-05 06:02 110 23.3
2016-May-05 05:47 142 23.3
2016-May-05 05:32 142 23.3
2016-May-05 05:17 142 0 gusting 4 23.3
2016-May-05 05:02 138 23.3
2016-May-05 04:47 138 23.3
2016-May-05 04:36 142 23.3
2016-May-05 04:17 144 23.3
2016-May-05 04:06 141 1 gusting 6 23.3
2016-May-05 03:47 133 23.3
2016-May-05 03:34 143 23.9
2016-May-05 03:17 123 23.3
2016-May-05 03:01 126 23.3
2016-May-05 02:51 136 23.3
2016-May-05 02:31 125 23.9
2016-May-05 02:16 105 0 gusting 6 23.9
2016-May-05 02:01 128 23.9
2016-May-05 01:46 122 23.9
2016-May-05 01:36 120 23.9
2016-May-05 01:16 120 24.4
2016-May-05 01:01 120 24.4
2016-May-05 00:46 119 24.4
2016-May-05 00:31 119 24.4
2016-May-05 00:16 114 24.4
2016-May-05 00:01 113 24.4
2016-May-04 23:46 166 24.4
2016-May-04 23:31 124 24.4
2016-May-04 23:16 147 24.4
2016-May-04 23:01 103 24.4
2016-May-04 22:46 089 25.0
2016-May-04 22:31 086 0 gusting 4 25.0
2016-May-04 22:16 111 25.0
2016-May-04 22:01 121 25.0
2016-May-04 21:46 098 25.0
2016-May-04 21:31 146 25.0
2016-May-04 21:16 063 25.6
2016-May-04 21:01 128 25.6
2016-May-04 20:46 134 25.6
2016-May-04 20:31 144 0 gusting 6 25.6
2016-May-04 20:16 115 1 gusting 6 25.6
2016-May-04 20:01 131 25.6
2016-May-04 19:46 150 0 gusting 8 25.6
2016-May-04 19:31 144 26.7
2016-May-04 19:18 130 26.1
2016-May-04 19:01 105 0 gusting 8 26.7
2016-May-04 18:48 153 1 gusting 8 28.3
2016-May-04 18:31 172 29.4
2016-May-04 18:16 196 28.3
2016-May-04 18:01 148 4 gusting 11 27.8
2016-May-04 17:46 107 1 gusting 12 27.8
2016-May-04 17:31 123 1 gusting 13 28.3
2016-May-04 17:16 096 1 gusting 13 28.3
2016-May-04 17:01 126 2 gusting 11 28.3
2016-May-04 16:46 096 1 gusting 8 28.9
2016-May-04 16:31 110 28.3
2016-May-04 16:16 071 0 gusting 7 27.2
2016-May-04 16:01 107 26.7
2016-May-04 15:46 093 3 gusting 7 26.7
2016-May-04 15:31 120 26.1
2016-May-04 15:16 109 1 gusting 8 26.1
2016-May-04 15:01 133 1 gusting 8 27.8
2016-May-04 14:46 112 27.8
2016-May-04 14:31 146 27.2
2016-May-04 14:16 074 1 gusting 8 27.8
2016-May-04 14:03 100 0 gusting 7 27.2
2016-May-04 13:45 162 0 gusting 9 26.7
2016-May-04 13:30 154 27.2
2016-May-04 13:15 080 27.2
2016-May-04 13:00 113 26.7
2016-May-04 12:45 090 25.6
2016-May-04 12:30 076 26.1
2016-May-04 12:15 121 1 gusting 9 26.1
2016-May-04 12:00 065 25.0
2016-May-04 11:45 130 25.0
2016-May-04 11:30 065 23.9
2016-May-04 11:15 105 23.9
2016-May-04 11:00 142 23.3
2016-May-04 10:45 142 23.3
2016-May-04 10:30 051 23.3
2016-May-04 10:15 145 23.3
2016-May-04 10:00 145 0 gusting 7 22.8
2016-May-04 09:45 135 22.8
2016-May-04 09:30 133 22.8
2016-May-04 09:15 133 22.8
2016-May-04 09:00 133 22.8